Location: Newark
(54.6833°N, 25.2833°E)
Time: 00:58:26
(UTC+00:00)

Altair - Pass Details

Date: 15 November 2019
Orbit: 1502 x 1682 km, 47.2° (Epoch: 14 December)

Event Time Altitude Azimuth Distance (km) Brightness Sun altitude
Rises 07:48:50 0° 280° (W) 4,663 9.6 11.5°
Reaches altitude 10° 07:52:06 10° 272° (W) 3,695 9.2 11.7°
Maximum altitude 08:00:19 37° 210° (SSW) 2,266 8.9 12.3°
Drops below altitude 10° 08:08:45 10° 149° (SSE) 3,802 12.8 12.9°
Sets 08:12:12 0° 141° (SE) 4,812 11.9 13.1°
